This demonstration page uses our WeatherBlox Daily Observations layout. Learn more.

Left ArrowRight Arrow

34.02893, -84.19858

Hourly Observations for April 20, 2022

Temp ( °F °C ) Dew Point ( °F °C ) Humidity (%) Winds ( mph kmh ) Pressure ( in mb ) Visibility ( mi km ) Precip ( " mm )
1:53 am 01:53 Clear 40 4.4 36 2.2 86 86 Calm 30.27 1025 10 16 0.00 0.00
2:53 am 02:53 Clear 39 3.9 37 2.8 93 93 Calm 30.26 1025 10 16 0.00 0.00
3:53 am 03:53 Clear 38 3.3 36 2.2 93 93 Calm 30.29 1026 10 16 0.00 0.00
4:53 am 04:53 Clear 38 3.3 36 2.2 93 93 Calm 30.29 1026 10 16 0.00 0.00
5:53 am 05:53 Clear 38 3.3 35 1.7 89 89 Calm 30.30 1026 10 16 0.00 0.00
6:53 am 06:53 Clear 43 6.1 34 1.1 71 71 VRB 3 6 30.31 1026 10 16 0.00 0.00
7:53 am 07:53 Sunny 45 7.2 32 0 61 61 undefined N/A 30.34 1028 10 16 0.00 0.00
8:53 am 08:53 Sunny 50 10 32 0 50 50 undefined N/A 30.36 1028 10 16 0.00 0.00
9:53 am 09:53 Sunny 53 11.7 33 0.6 47 47 VRB 3 6 30.36 1028 10 16 0.00 0.00
10:53 am 10:53 Sunny 59 15 34 1.1 39 39 undefined N/A 30.36 1028 10 16 0.00 0.00
11:53 am 11:53 Sunny 62 16.7 35 1.7 37 37 ESE 7 11 30.36 1028 10 16 0.00 0.00
12:53 pm 12:53 Sunny 65 18.3 37 2.8 36 36 VRB 3 6 30.35 1028 10 16 0.00 0.00
1:53 pm 13:53 Sunny 67 19.4 36 2.2 32 32 VRB 6 9 30.32 1027 10 16 0.00 0.00
2:53 pm 14:53 Sunny 68 20 37 2.8 32 32 SE 8 13 30.32 1027 10 16 0.00 0.00
3:53 pm 15:53 Sunny 69 20.6 37 2.8 31 31 ESE 10 17 30.28 1026 10 16 0.00 0.00
4:53 pm 16:53 Sunny 69 20.6 38 3.3 32 32 SE 8 13 30.27 1025 10 16 0.00 0.00
5:53 pm 17:53 Sunny 67 19.4 37 2.8 33 33 VRB 6 9 30.28 1025 10 16 0.00 0.00
6:53 pm 18:53 Sunny 66 18.9 38 3.3 36 36 VRB 5 7 30.27 1025 10 16 0.00 0.00
7:53 pm 19:53 Sunny 65 18.3 39 3.9 39 39 VRB 3 6 30.27 1025 10 16 0.00 0.00
8:53 pm 20:53 Clear 63 17.2 40 4.4 43 43 ESE 3 6 30.28 1025 10 16 0.00 0.00
9:53 pm 21:53 Clear 61 16.1 40 4.4 46 46 Calm 30.29 1026 10 16 0.00 0.00
10:53 pm 22:53 Clear 60 15.6 41 5 50 50 VRB 3 6 30.30 1026 10 16 0.00 0.00
11:53 pm 23:53 Clear 60 15.6 43 6.1 53 53 VRB 3 6 30.31 1026 10 16 0.00 0.00

Powered by AerisWeather